Location: Newark
(34.0131°N, 4.3314°W)
Time: 10:17:32
(UTC+00:00)

A-11 Canister half - Pass Details

Date: 25 October 2019
Orbit: 1514 x 1686 km, 47.2° (Epoch: 13 November)

Event Time Altitude Azimuth Distance (km) Brightness Sun altitude
Rises 08:07:56 0° 303° (WNW) 4,777 11.0 18.0°
Reaches altitude 10° 08:11:08 10° 299° (WNW) 3,767 10.5 18.5°
Maximum altitude 08:20:15 54° 226° (SW) 1,809 9.6 20.2°
Drops below altitude 10° 08:29:08 10° 152° (SSE) 3,666 12.2 21.7°
Sets 08:32:13 0° 147° (SSE) 4,641 12.6 22.3°
